sat.trackr.live / text

‹ back to catalog

STARLINK-5136

NORAD 56414 · 2023-061AS

PAYLOAD ACTIVE UNKNOWN

§ Identity

Operator
Country
US
Launch date
2023-05-04
Launch site
AFETR
Launch vehicle
Mass (kg)
RCS (m²)

Purposes: comms

External: N2YO · Heavens-Above · Gunter

§ Orbital elements

Epoch: 2026-09-19T22:50:51.465120Z

Period
94.27 min
Inclination
43.0026°
Eccentricity
0.0001361
Mean motion
15.27558794 rev/d
Perigee alt
482.2 km
Apogee alt
484.0 km
Semi-major
6,861.2 km
B*
-6.1407e-5
RAAN
170.0135°
Arg perigee
255.8750°
Mean anomaly
104.1951°
Rev number
18,658

§ Raw data

STARLINK-51361 56414U 23061AS  26262.95198455 -.00001950  00000+0 -61407-4 0  99942 56414  43.0026 170.0135 0001361 255.8750 104.1951 15.27558794186589

JSON: /api/v1/satellites/56414 · /tle

For live sub-satellite position, see the globe view (requires WebGL).

§ Visibility from observer

Set your observer location to see the next 7 days of passes ≥ 10°. The values pass through the URL so the page stays shareable.

No JS? Fill the form by hand. The geolocation button needs JavaScript.